Weather History for Poplar Bluff, MO

Change the Weather History Date:

Wednesday, October 30, 2013

  Actual Average Record
Temperature  
Mean Temperature 68 °F -  
Max Temperature 75 °F 64 °F 91 °F (1924)
Min Temperature 62 °F 42 °F 21 °F (1925)
Cooling Degree Days 4    
Growing Degree Days 18 (Base 50)    
Moisture  
Dew Point 63 °F    
Average Humidity 79    
Maximum Humidity 90    
Minimum Humidity 64    
Precipitation  
Precipitation 0.03 in - - ()
Sea Level Pressure  
Sea Level Pressure 30.03 in    
Wind  
Wind Speed 7 mph (South)    
Max Wind Speed 20 mph    
Max Gust Speed 28 mph    
Visibility 9 miles    
Events Rain    
Averages and records for this station are not official NWS values.
T = Trace of Precipitation, MM = Missing Value Source: NWS Daily Summary

Daily Weather History Graph

Daily Weather History Graph

Search for Another Location

Airport:

Trip Planner

Search our weather history database for the weather conditions in past years. The results will help you decide how hot, cold, wet, or windy it might be!

Date:

Astronomy

Oct. 30, 2013 Rise Set
Actual Time 7:23 AM CDT 6:06 PM CDT
Civil Twilight 6:56 AM CDT 6:32 PM CDT
Nautical Twilight 6:26 AM CDT 7:03 PM CDT
Astronomical Twilight 5:55 AM CDT 7:33 PM CDT
Moon 3:18 AM CDT (10/30) 3:46 PM CDT (10/30)
Length of Visible Light 11h 36m
Length of Day
10h 42m
Waning Crescent, 17% of the Moon is Illuminated
Oct 30
Waning Crescent
Nov 3
New
Nov 9
First Quarter
Nov 17
Full
Nov 25
Last Quarter

Hourly Weather History & Observations

Time (CDT) Temp. Dew Point Humidity Pressure Visibility Wind Dir Wind Speed Gust Speed Precip Events Conditions
12:53 AM 62.1 °F 59.0 °F 90% 30.09 in 3.0 mi Calm Calm - N/A   Overcast
1:53 AM 64.0 °F 61.0 °F 90% 30.09 in 3.0 mi Calm Calm - N/A   Overcast
2:53 AM 63.0 °F 60.1 °F 90% 30.09 in 3.0 mi Calm Calm - N/A   Overcast
3:53 AM 64.9 °F 62.1 °F 90% 30.09 in 6.0 mi SSW 4.6 mph - N/A   Overcast
4:53 AM 66.0 °F 62.1 °F 87% 30.09 in 9.0 mi South 6.9 mph - N/A   Overcast
5:53 AM 66.0 °F 61.0 °F 84% 30.10 in 10.0 mi South 6.9 mph - N/A   Overcast
6:53 AM 64.9 °F 61.0 °F 87% 30.10 in 10.0 mi South 6.9 mph - N/A   Scattered Clouds
7:53 AM 64.9 °F 61.0 °F 87% 30.10 in 8.0 mi South 5.8 mph - N/A   Mostly Cloudy
8:53 AM 66.0 °F 62.1 °F 87% 30.11 in 10.0 mi South 8.1 mph - N/A   Mostly Cloudy
9:53 AM 69.1 °F 63.0 °F 81% 30.10 in 10.0 mi South 8.1 mph - N/A   Scattered Clouds
10:53 AM 70.0 °F 63.0 °F 78% 30.08 in 10.0 mi South 9.2 mph - N/A   Partly Cloudy
11:24 AM 73.4 °F 64.4 °F 73% 30.08 in 10.0 mi SSW 10.4 mph - N/A   Mostly Cloudy
11:53 AM 73.9 °F 64.0 °F 71% 30.07 in 10.0 mi SSW 19.6 mph 25.3 mph N/A   Mostly Cloudy
12:44 PM 75.2 °F 64.4 °F 69% 30.06 in 10.0 mi SSW 16.1 mph 27.6 mph N/A   Scattered Clouds
12:53 PM 73.9 °F 64.0 °F 71% 30.05 in 10.0 mi SSW 16.1 mph - N/A   Mostly Cloudy
1:53 PM 75.9 °F 63.0 °F 64% 30.00 in 10.0 mi SSW 16.1 mph 25.3 mph N/A   Scattered Clouds
2:53 PM 75.0 °F 62.1 °F 64% 29.99 in 10.0 mi South 12.7 mph - N/A   Mostly Cloudy
3:53 PM 73.0 °F 63.0 °F 71% 29.99 in 10.0 mi South 12.7 mph - N/A   Overcast
4:24 PM 71.6 °F 62.6 °F 73% 29.99 in 10.0 mi South 12.7 mph 19.6 mph N/A   Overcast
4:53 PM 72.0 °F 63.0 °F 73% 29.97 in 10.0 mi South 9.2 mph - N/A   Mostly Cloudy
5:53 PM 71.1 °F 63.0 °F 75% 29.96 in 10.0 mi South 6.9 mph - N/A   Partly Cloudy
6:53 PM 70.0 °F 63.0 °F 78% 29.97 in 10.0 mi South 6.9 mph - 0.00 in   Mostly Cloudy
7:53 PM 70.0 °F 63.0 °F 78% 29.97 in 10.0 mi South 8.1 mph - N/A   Overcast
8:53 PM 70.0 °F 63.0 °F 78% 29.96 in 10.0 mi South 9.2 mph - N/A   Overcast
9:10 PM 69.8 °F 62.6 °F 78% 29.96 in 10.0 mi South 6.9 mph - N/A   Overcast
9:34 PM 69.8 °F 62.6 °F 78% 29.95 in 10.0 mi South 10.4 mph - N/A   Overcast
9:53 PM 70.0 °F 64.0 °F 81% 29.94 in 10.0 mi South 12.7 mph - N/A   Overcast
10:53 PM 69.1 °F 64.0 °F 84% 29.93 in 9.0 mi South 10.4 mph - 0.01 in Rain Light Rain
11:53 PM 69.1 °F 64.9 °F 87% 29.91 in 7.0 mi South 9.2 mph - 0.02 in Rain Light Rain